TimeMDT,TemperatureF,Dew PointF,Humidity,Sea Level PressureIn,VisibilityMPH,Wind Direction,Wind SpeedMPH,Gust SpeedMPH,PrecipitationIn,Events,Conditions,WindDirDegrees,DateUTC
12:53 AM,72.0,45.0,38,29.90,10.0,ENE,11.5,-,N/A,,Clear,60,2013-08-19 06:53:00
1:53 AM,68.0,45.0,43,29.91,10.0,ENE,6.9,-,N/A,,Clear,60,2013-08-19 07:53:00
2:53 AM,63.0,44.1,50,29.91,10.0,NW,10.4,-,N/A,,Clear,320,2013-08-19 08:53:00
3:53 AM,63.0,43.0,48,29.92,10.0,NW,12.7,-,N/A,,Clear,320,2013-08-19 09:53:00
4:53 AM,61.0,44.1,54,29.93,10.0,NW,9.2,-,N/A,,Clear,310,2013-08-19 10:53:00
5:53 AM,62.1,37.9,41,29.94,10.0,NW,10.4,-,N/A,,Clear,310,2013-08-19 11:53:00
6:53 AM,60.1,39.0,46,29.96,10.0,SW,8.1,-,N/A,,Clear,230,2013-08-19 12:53:00
7:53 AM,68.0,41.0,37,29.96,10.0,WSW,6.9,-,N/A,,Clear,240,2013-08-19 13:53:00
8:53 AM,72.0,37.0,28,29.96,10.0,WSW,5.8,-,N/A,,Clear,250,2013-08-19 14:53:00
9:53 AM,75.9,39.9,27,29.97,10.0,Calm,Calm,-,N/A,,Clear,0,2013-08-19 15:53:00
10:53 AM,80.1,39.9,24,29.95,10.0,Variable,3.5,-,N/A,,Clear,0,2013-08-19 16:53:00
11:53 AM,82.9,44.1,25,29.93,10.0,East,6.9,-,N/A,,Clear,100,2013-08-19 17:53:00
12:53 PM,87.1,39.9,19,29.90,10.0,Calm,Calm,-,N/A,,Clear,0,2013-08-19 18:53:00
1:53 PM,91.0,25.0,9,29.88,10.0,East,9.2,-,N/A,,Clear,100,2013-08-19 19:53:00
2:53 PM,93.0,30.0,11,29.86,10.0,East,8.1,-,N/A,,Clear,100,2013-08-19 20:53:00
3:53 PM,93.0,27.0,9,29.83,10.0,Variable,6.9,-,N/A,,Clear,0,2013-08-19 21:53:00
4:53 PM,93.9,27.0,9,29.81,10.0,Variable,3.5,-,N/A,,Clear,0,2013-08-19 22:53:00
5:53 PM,93.9,19.0,7,29.80,10.0,WNW,15.0,-,N/A,,Clear,300,2013-08-19 23:53:00
6:53 PM,91.0,23.0,8,29.80,10.0,NW,11.5,-,N/A,,Clear,320,2013-08-20 00:53:00
7:53 PM,84.9,27.0,12,29.81,10.0,NW,10.4,-,N/A,,Clear,310,2013-08-20 01:53:00
8:53 PM,81.0,21.9,11,29.82,10.0,NW,12.7,-,N/A,,Clear,310,2013-08-20 02:53:00
9:53 PM,75.9,25.0,15,29.84,10.0,NW,13.8,-,N/A,,Clear,320,2013-08-20 03:53:00
10:53 PM,75.0,24.1,15,29.84,10.0,NW,12.7,-,N/A,,Clear,310,2013-08-20 04:53:00
11:53 PM,73.0,24.1,16,29.84,10.0,WNW,13.8,-,N/A,,Clear,300,2013-08-20 05:53:00